{"data":{"norad_id":40141,"intl_designator":"2014-052A","name":"ASIASAT 6","alt_names":[],"object_type":"PAYLOAD","status":"ACTIVE","operator":null,"country":"AC","launch_date":"2014-09-07","launch_site_code":"AFETR","launch_vehicle":null,"mission":null,"orbit_class":"UNKNOWN","rcs_meters":56.4283,"size_class":null,"mass_kg":null,"dimensions":null,"purposes":["comms"],"wikipedia_slug":null,"has_3d_model":false,"image_url":null,"decayed_at":null,"tle_current":{"epoch":"2026-05-24T23:10:45.984864Z","epoch_age_seconds":74661,"freshness":"FRESH","line1":"1 40141U 14052A   26144.96581001 -.00000365  00000+0  00000+0 0  9992","line2":"2 40141   0.0499  97.2449 0000804 315.8910 297.0328  1.00272516 42841","mean_motion":1.00272516,"eccentricity":8.04e-5,"inclination_deg":0.0499,"raan_deg":97.2449,"arg_perigee_deg":315.891,"mean_anomaly_deg":297.0328,"bstar":0,"rev_number":4284,"period_min":1436.0864346916,"perigee_km":35783.000008626,"apogee_km":35789.780064573,"semimajor_km":42164.5270366,"source":"CELESTRAK","updated_at":"2026-05-25T13:38:13.951369Z"}}}